Location: ???? ?????
(37.9132°N, 22.9869°E)
Time: 10:30:03
(UTC+00:00)

Meteor 1-26 Rocket - Pass Details

Date: 04 August 2024
Orbit: 805 x 928 km, 81.3° (Epoch: 18 September)

Event Time Altitude Azimuth Distance (km) Brightness Sun altitude
Rises 20:13:46 0° 351° (N) 3,489 8.3 -26.0°
Reaches altitude 10° 20:16:12 10° 352° (N) 2,563 7.5 -26.3°
Maximum altitude 20:22:05 86° 81° (E) 916 4.2 -27.0°
Enters shadow 20:22:34 76° 156° (SSE) 938 4.2 -27.1°
